Wind_Speed
34 33 32 31 31 30 30 29 28 28 28 28 27 27 26 26 26 26 25 25 25 25 24 24 24 24 23 23 23 23 23 22 22 23 23 23 23 23 24 24 24 24 24
35 35 34 33 33 32 31 31 31 31 30 30 29 29 28 28 27 27 27 26 26 26 26 26 25 25 25 24 24 25 24 24 24 24 25 25 25 25 25 25 25 25 25
36 36 36 35 34 34 34 34 33 33 32 31 31 30 30 29 29 28 28 28 27 28 28 27 27 27 27 26 26 26 26 25 25 25 25 26 26 26 27 27 27 27 27
38 38 38 38 38 37 36 35 36 35 34 33 33 32 32 31 31 30 30 30 29 29 29 29 28 27 27 27 27 27 27 27 27 27 27 28 27 27 28 28 27 27 27
41 41 40 40 40 40 39 38 37 36 36 36 35 34 34 33 33 32 32 32 31 30 30 30 30 29 28 28 29 29 29 29 29 28 29 29 29 29 29 29 28 28 28
43 42 42 43 42 42 41 40 39 39 38 37 37 36 36 36 35 34 34 33 33 33 32 32 32 31 30 30 30 30 30 30 30 30 30 30 31 31 31 30 30 30 30
43 44 44 45 44 44 43 42 41 41 40 40 39 38 38 37 36 36 35 35 34 34 34 33 33 33 33 32 32 32 32 31 31 31 31 31 32 32 32 31 31 32 32
44 45 46 46 46 45 44 43 43 42 41 41 41 40 39 39 38 38 37 37 36 36 35 34 34 34 34 34 34 34 33 33 33 33 33 33 33 33 33 33 33 33 34
45 46 46 46 47 46 46 45 44 44 43 42 42 42 41 41 40 39 39 38 38 37 36 36 35 35 35 34 34 35 35 34 34 33 33 34 33 33 33 34 35 35 35
47 47 47 48 48 48 47 47 46 45 45 45 44 44 44 43 42 41 40 40 40 39 38 37 37 36 36 35 35 35 35 36 35 34 34 35 34 35 35 35 35 35 35
48 48 48 49 49 49 48 48 48 47 47 46 46 45 45 44 44 43 42 42 41 41 39 38 38 37 37 37 36 36 36 36 35 35 35 36 37 37 36 35 35 35 36
49 49 49 50 50 50 50 49 49 49 49 48 48 47 46 45 45 44 44 43 43 42 41 40 39 39 38 38 38 38 37 37 37 36 36 37 37 37 36 36 35 36 36
50 49 49 50 50 50 50 50 50 50 50 50 49 49 48 47 46 45 45 45 44 43 42 42 41 41 40 40 39 39 39 39 39 38 38 38 38 38 37 36 36 36 37
50 50 50 50 50 51 51 51 50 50 51 51 50 50 49 49 48 47 46 46 46 45 44 43 43 42 41 41 40 40 40 40 40 39 39 38 38 38 38 38 37 37 38
51 52 52 52 52 52 53 53 52 51 51 51 51 52 51 51 50 49 48 47 46 45 44 44 43 43 42 42 42 42 42 41 41 41 40 40 40 40 40 39 39 39 39
51 52 52 52 52 52 53 53 54 53 52 52 52 52 52 52 51 50 49 47 47 47 46 44 44 43 43 43 43 42 42 42 41 41 41 42 42 41 41 41 41 41 41
51 51 51 51 52 52 52 52 53 53 52 52 52 52 52 52 52 51 50 49 47 47 46 45 45 44 44 44 44 43 43 42 42 43 43 43 42 42 42 42 42 41 41
51 51 50 50 51 51 51 51 51 52 52 52 52 52 52 52 52 52 51 50 49 48 48 47 46 45 44 44 44 44 43 42 43 43 43 43 42 42 42 42 42 42 42
51 51 50 49 50 51 51 51 51 52 52 52 53 53 53 53 53 53 52 51 51 50 49 48 47 46 45 44 44 44 43 43 43 43 43 43 43 42 43 43 43 43 43
50 50 50 50 50 50 51 51 51 51 51 52 52 52 53 53 52 52 52 52 51 51 51 50 48 47 46 46 45 45 45 45 45 44 44 44 43 43 43 43 43 43 44
49 49 49 50 49 49 50 50 50 50 50 50 50 51 51 52 52 52 52 52 51 51 51 50 50 49 47 47 47 46 46 46 46 45 45 45 44 44 44 44 44 44 44
48 48 48 49 49 48 48 48 50 51 50 49 49 50 50 51 51 51 52 52 52 51 51 51 50 49 48 48 48 48 48 47 47 46 46 46 45 45 45 44 44 43 43
47 48 48 48 48 48 48 48 49 50 49 49 49 49 50 50 51 51 51 51 51 51 51 51 51 50 49 49 49 49 49 48 48 47 47 47 46 46 45 44 44 44 44
44 46 47 47 48 48 48 48 49 50 49 49 48 48 49 49 50 51 51 50 50 50 50 50 50 50 50 50 49 50 50 49 49 48 48 47 47 46 45 44 44 44 44
42 43 45 46 47 47 47 48 48 49 49 48 48 48 48 48 49 50 50 50 49 49 48 49 49 49 49 49 49 50 50 50 49 48 48 47 47 47 46 45 45 45 45
39 41 42 44 45 46 46 47 47 47 48 48 47 47 48 48 48 49 48 48 49 49 48 48 49 48 48 49 49 49 49 50 50 49 48 48 47 47 46 45 45 45 45
Wind_Direction
248 247 246 246 245 246 246 246 246 246 246 246 246 246 246 246 245 245 246 245 245 245 247 248 249 251 254 256 256 257 257 258 259 259 260 262 264 266 267 268 269 269 270
247 246 246 246 245 245 245 245 245 246 246 246 246 246 247 246 246 245 245 245 246 246 248 249 250 251 253 255 257 257 258 259 260 261 261 263 265 267 269 271 271 271 271
248 247 246 246 246 245 245 245 245 246 247 248 246 247 248 247 246 246 246 246 246 247 249 251 252 252 254 255 257 259 260 260 261 262 264 264 267 268 270 271 271 271 271
248 247 247 247 246 246 246 246 246 247 248 248 247 247 247 247 246 246 247 247 247 248 249 251 253 254 254 256 257 260 261 261 263 265 266 266 267 268 270 271 271 270 270
247 247 247 248 248 247 248 248 247 247 248 248 248 248 247 246 246 247 247 248 249 249 250 251 253 254 255 256 258 259 261 262 264 265 267 267 268 268 271 271 271 271 271
248 247 247 248 249 250 249 249 249 248 248 247 247 247 247 246 246 247 247 249 250 250 251 251 253 255 256 257 259 260 261 263 265 266 267 268 269 269 270 270 271 271 271
249 248 247 248 249 249 249 249 249 248 248 247 247 247 246 245 246 247 248 250 251 252 252 252 253 254 256 258 259 261 262 262 264 266 268 268 270 270 270 270 271 271 271
250 249 248 248 248 248 248 248 248 248 247 246 246 247 247 247 247 249 249 251 252 253 253 253 255 255 256 258 259 260 261 262 262 264 266 268 270 270 270 270 271 272 272
252 250 249 248 248 248 247 247 247 246 246 246 246 247 246 246 248 249 249 250 252 253 254 255 257 257 258 259 259 260 260 260 262 263 266 268 269 270 271 272 273 274 274
252 251 250 249 249 247 247 247 246 246 246 246 246 246 246 247 248 249 249 250 251 253 254 255 256 258 259 259 260 259 259 261 263 264 266 267 268 271 273 274 275 275 275
253 252 251 250 250 248 247 247 247 247 246 247 246 246 246 248 248 249 249 250 251 253 254 255 256 258 259 260 260 260 261 262 264 265 265 266 269 271 272 274 275 275 275
253 252 251 250 250 249 248 247 247 247 247 247 247 247 247 248 248 249 249 250 251 253 253 254 256 256 257 259 260 261 262 263 264 264 265 266 268 270 271 273 274 274 275
252 251 251 250 249 249 247 247 247 246 246 246 246 246 246 246 246 249 250 250 251 253 254 254 255 256 256 258 259 261 263 263 264 265 266 268 268 269 270 272 273 274 274
251 250 249 249 249 248 247 246 246 246 246 245 245 245 245 245 246 248 250 251 251 253 255 256 256 256 256 257 258 260 262 263 263 265 266 268 268 269 270 272 273 274 274
251 251 249 249 248 248 248 246 245 245 246 245 244 244 245 245 246 247 249 251 251 253 254 255 255 255 257 258 259 260 261 262 263 264 266 267 268 269 271 273 274 275 275
252 251 250 250 249 248 248 247 246 245 246 245 245 245 245 246 246 247 249 250 251 252 253 254 255 256 257 258 259 260 261 261 262 263 265 267 268 269 270 271 273 275 276
252 251 250 248 247 247 247 247 246 245 245 245 245 245 245 246 246 247 248 250 250 251 252 253 254 255 257 258 259 259 260 261 262 263 266 267 268 269 270 271 272 274 275
251 251 250 248 247 247 247 246 246 244 243 244 244 244 244 246 246 248 249 249 250 251 252 253 254 254 255 257 259 259 260 261 262 264 266 267 268 269 270 270 272 273 274
251 250 249 249 248 247 247 246 245 243 243 243 244 244 244 245 247 248 249 249 250 251 252 253 253 253 255 257 258 259 260 261 263 264 266 267 268 268 269 271 271 273 274
249 248 248 247 247 247 246 245 245 244 244 244 244 245 246 245 247 247 248 249 249 251 251 252 252 253 254 256 258 259 260 261 263 265 266 267 268 269 270 270 271 272 273
248 246 246 246 246 246 245 245 244 244 244 244 244 245 246 245 246 247 247 248 249 250 251 251 252 253 254 256 258 259 260 261 263 265 266 267 268 269 269 270 271 272 273
247 246 245 245 245 245 245 244 243 243 244 244 245 245 245 245 246 246 247 247 249 250 251 251 251 253 255 256 258 259 260 261 262 264 265 266 267 268 268 269 270 271 273
248 246 244 243 244 244 244 244 243 243 243 244 245 245 245 245 246 247 247 247 248 249 250 250 251 252 254 256 257 258 260 261 262 263 264 265 266 266 267 268 270 271 272
248 246 245 244 244 244 244 244 244 243 243 244 245 245 245 246 246 247 246 247 249 250 250 251 252 253 254 256 258 259 260 261 261 262 263 264 265 265 267 268 269 271 271
249 247 245 244 244 244 244 244 244 244 243 244 244 245 245 247 247 247 246 247 248 248 249 251 252 253 254 256 258 259 260 260 260 261 262 263 264 265 266 267 269 270 271
249 247 245 245 244 243 244 244 243 244 244 245 244 245 246 247 246 246 246 246 247 247 249 251 253 254 256 257 258 259 259 260 260 261 261 262 263 264 265 266 268 269 271
Height
5785 5787 5789 5791 5792 5794 5796 5797 5798 5800 5801 5802 5804 5805 5807 5808 5809 5811 5812 5813 5815 5816 5817 5818 5819 5820 5821 5821 5822 5823 5823 5824 5824 5825 5825 5825 5825 5825 5825 5825 5825 5825 5825
5777 5780 5782 5783 5785 5787 5789 5790 5792 5793 5795 5796 5798 5799 5801 5802 5803 5805 5806 5808 5809 5810 5811 5813 5814 5814 5815 5816 5817 5817 5818 5819 5819 5819 5820 5820 5820 5820 5820 5820 5820 5820 5820
5769 5771 5774 5776 5777 5779 5781 5783 5785 5786 5788 5790 5791 5793 5794 5796 5797 5799 5800 5802 5803 5805 5806 5807 5808 5809 5810 5811 5812 5812 5813 5813 5814 5814 5814 5815 5815 5815 5815 5814 5814 5814 5814
5761 5763 5765 5767 5769 5771 5773 5775 5777 5779 5781 5782 5784 5786 5787 5789 5791 5792 5794 5795 5797 5798 5800 5801 5802 5803 5804 5805 5806 5806 5807 5807 5808 5808 5809 5809 5809 5809 5809 5808 5808 5808 5808
5751 5754 5756 5758 5760 5762 5764 5766 5768 5770 5772 5774 5776 5778 5780 5782 5784 5785 5787 5789 5790 5792 5793 5794 5796 5797 5798 5799 5800 5800 5801 5801 5802 5802 5802 5802 5802 5802 5802 5802 5802 5802 5802
5741 5743 5746 5748 5751 5753 5755 5757 5759 5761 5763 5766 5768 5770 5772 5774 5776 5778 5779 5781 5783 5784 5786 5787 5789 5790 5791 5792 5793 5793 5794 5795 5795 5795 5796 5796 5796 5796 5796 5795 5795 5795 5795
5730 5733 5735 5738 5740 5743 5745 5747 5749 5752 5754 5756 5759 5761 5763 5765 5768 5770 5771 5773 5775 5777 5778 5780 5781 5782 5784 5785 5786 5786 5787 5787 5788 5788 5788 5788 5788 5788 5788 5788 5788 5787 5787
5718 5721 5724 5726 5729 5732 5734 5737 5739 5741 5744 5746 5749 5751 5754 5757 5759 5761 5763 5765 5767 5769 5771 5772 5773 5775 5776 5777 5778 5779 5780 5780 5780 5781 5781 5781 5781 5781 5781 5780 5780 5780 5779
5707 5709 5712 5714 5717 5720 5723 5726 5728 5731 5734 5736 5739 5742 5745 5747 5750 5752 5754 5756 5758 5760 5762 5764 5765 5767 5768 5769 5770 5771 5772 5772 5773 5773 5773 5773 5773 5773 5773 5772 5771 5771 5771
5694 5697 5699 5702 5705 5708 5711 5714 5716 5719 5722 5726 5728 5731 5735 5737 5740 5743 5745 5747 5749 5751 5753 5755 5757 5758 5759 5761 5761 5762 5763 5764 5764 5765 5765 5764 5764 5764 5764 5763 5763 5762 5762
5681 5684 5686 5689 5692 5695 5698 5701 5705 5708 5711 5714 5717 5720 5724 5727 5730 5733 5736 5738 5740 5742 5744 5746 5748 5749 5750 5752 5753 5754 5755 5755 5756 5756 5756 5756 5756 5756 5755 5755 5754 5754 5753
5668 5670 5672 5675 5678 5682 5685 5689 5692 5696 5699 5703 5706 5709 5713 5716 5719 5722 5725 5727 5730 5732 5734 5736 5738 5739 5741 5742 5744 5745 5746 5746 5747 5747 5747 5747 5747 5747 5747 5746 5745 5745 5744
5654 5656 5658 5661 5664 5668 5672 5675 5679 5683 5687 5690 5694 5698 5701 5705 5708 5711 5714 5717 5719 5722 5724 5726 5728 5729 5731 5732 5734 5735 5736 5737 5737 5737 5737 5737 5737 5737 5737 5737 5736 5736 5735
5640 5642 5645 5647 5651 5654 5658 5661 5665 5670 5674 5678 5682 5685 5689 5693 5697 5700 5703 5706 5708 5711 5713 5715 5717 5719 5720 5722 5723 5724 5726 5727 5727 5727 5728 5728 5727 5728 5727 5727 5727 5726 5726
5625 5628 5631 5634 5637 5640 5643 5647 5651 5656 5660 5665 5669 5673 5677 5681 5684 5688 5691 5694 5697 5700 5702 5704 5706 5708 5709 5711 5713 5714 5715 5716 5717 5717 5718 5718 5718 5718 5717 5717 5717 5716 5716
5611 5613 5616 5619 5622 5626 5629 5633 5637 5642 5646 5651 5655 5660 5664 5668 5672 5675 5679 5682 5685 5688 5691 5693 5695 5697 5698 5700 5702 5703 5704 5705 5706 5707 5707 5707 5707 5707 5707 5707 5706 5706 5705
5595 5598 5601 5604 5608 5611 5615 5619 5623 5628 5633 5637 5642 5646 5651 5655 5659 5663 5666 5669 5672 5676 5679 5681 5684 5685 5687 5689 5690 5692 5693 5694 5695 5696 5696 5696 5696 5696 5696 5696 5695 5695 5694
5581 5584 5587 5590 5593 5597 5601 5605 5609 5614 5619 5624 5628 5632 5637 5641 5645 5649 5653 5657 5660 5663 5666 5669 5671 5673 5675 5677 5679 5680 5682 5683 5684 5684 5685 5685 5685 5685 5685 5685 5684 5684 5683
5566 5569 5572 5576 5579 5583 5587 5591 5595 5600 5605 5610 5614 5619 5623 5627 5632 5636 5640 5643 5647 5650 5653 5656 5659 5661 5663 5665 5667 5669 5670 5671 5672 5672 5673 5673 5674 5674 5673 5673 5673 5672 5672
5551 5554 5558 5562 5565 5569 5573 5578 5582 5587 5591 5596 5600 5605 5609 5614 5618 5622 5626 5629 5633 5637 5640 5643 5646 5649 5651 5653 5655 5657 5658 5659 5660 5660 5661 5661 5662 5662 5662 5662 5661 5661 5660
5537 5540 5544 5548 5552 5556 5561 5565 5569 5574 5578 5582 5587 5591 5596 5600 5604 5608 5612 5616 5619 5623 5626 5630 5633 5636 5638 5640 5643 5644 5645 5646 5647 5648 5649 5650 5650 5650 5650 5649 5649 5648 5648
5523 5526 5531 5535 5539 5544 5548 5552 5557 5561 5565 5569 5574 5578 5582 5587 5590 5594 5598 5602 5606 5609 5613 5616 5619 5622 5625 5627 5629 5630 5632 5634 5635 5636 5636 5637 5637 5637 5637 5637 5637 5636 5636
5509 5513 5517 5522 5526 5531 5535 5540 5544 5548 5552 5557 5561 5565 5569 5573 5577 5580 5584 5588 5592 5595 5599 5603 5606 5609 5611 5614 5616 5618 5619 5620 5622 5623 5623 5624 5624 5625 5625 5625 5624 5624 5623
5496 5500 5505 5509 5514 5518 5523 5527 5531 5535 5540 5544 5549 5552 5556 5560 5564 5567 5571 5575 5579 5582 5586 5589 5593 5596 5597 5599 5601 5603 5604 5606 5608 5609 5609 5611 5611 5612 5612 5612 5612 5611 5611
5484 5488 5492 5496 5501 5506 5510 5514 5518 5523 5527 5532 5536 5540 5543 5547 5551 5554 5558 5562 5566 5569 5572 5575 5578 5581 5583 5585 5587 5589 5590 5592 5594 5595 5595 5597 5598 5598 5599 5599 5599 5598 5598
5473 5476 5480 5484 5488 5493 5497 5501 5506 5510 5515 5519 5523 5527 5531 5534 5538 5541 5545 5549 5553 5556 5559 5562 5565 5567 5569 5571 5573 5575 5576 5577 5579 5581 5582 5583 5584 5584 5586 5587 5586 5585 5585